Regional Weather Roundup
Issued by NWS

Home | Current Version | Previous Version | Text Only | Print | Product List | Glossary Off
Versions: 1 2 3 4 5 6 7 8 9 10 11 12 13 14 15 16 17 18 19 20 21 22 23 24 25 26 27 28 29 30 31 32 33 34 35 36 37 38 39 40 41 42 43 44 45 46 47 48 49 50

000
ASUS45 KSLC 240810
RWRUT

UTAH REGIONAL WEATHER ROUNDUP
NATIONAL WEATHER SERVICE SALT LAKE CITY UT
200 AM MDT MON APR 24 2017

UTZ001>011-023>025-240900-

NORTHERN UTAH

CITY           SKY/WX    TMP DP  RH WIND       PRES   REMARKS
BRIGHAM CITY   PTCLDY    49  36  61 E6        29.78F
HILL AFB       MOCLDY    49  37  65 S9        29.80F
LOGAN          PTCLDY    39  34  82 N3        29.79F
OGDEN          MOCLDY    47  35  63 SE7       29.79S
SALT LAKE CITY MOCLDY    51  36  56 SE8       29.78F
TOOELE VALLEY  MOCLDY    50  36  57 S17       29.78F
WENDOVER       MOCLDY    47  37  68 W3        29.77F
HEBER CITY     MOCLDY    34  32  93 S3        29.85S
WEST JORDAN    MOCLDY    53  47  81 S12       29.81S

$$

UTZ011>015-024>027-240900-

CENTRAL/NORTHEAST UTAH

CITY           SKY/WX    TMP DP  RH WIND       PRES   REMARKS
PROVO AIRPORT  PTCLDY    44  39  82 E3        29.84F
MOAB/CANYONLAN PTCLDY    54  34  46 W6        29.78R
DELTA          CLEAR     43  36  75 SE7       29.83F
PRICE          MOCLDY    44  34  67 CALM      29.85R
RICHFIELD      CLEAR     39  39 100 NE3       29.89F
ROOSEVELT      CLEAR     48  32  53 W14       29.81S
VERNAL         CLOUDY    47  39  74 NE7       29.78F

$$

UTZ013>016-019>022-027-240900-

SOUTHERN UTAH

CITY           SKY/WX    TMP DP  RH WIND       PRES   REMARKS
BRYCE CANYON   CLEAR     32  25  75 W7        29.94F WCI  26
CEDAR CITY     PTCLDY    49  29  46 E5        29.85F
MILFORD        PTCLDY    44  35  70 W7        29.83F
ST GEORGE      PTSUNNY   61  26  26 CALM      29.73F
HANKSVILLE     CLOUDY    54  32  43 CALM      29.81S
KANAB          CLEAR     48  27  43 NE5       29.85F
BLANDING       PTCLDY    50  21  32 W3        29.91S

$$

REGIONAL REPORTS     COLORADO/ARIZONA

CITY           SKY/WX    TMP DP  RH WIND       PRES   REMARKS
CRAIG, CO      LGT RAIN  43  40  89 SW5       29.86F
GRAND JUNCTION MOCLDY    55  33  43 CALM      29.75F
RIFLE, CO      CLOUDY    55  36  48 N9        29.82R
MONTROSE, CO   MOCLDY    59  26  28 NW13      29.83S
CORTEZ, CO     CLEAR     55  21  26 S15       29.85S
COLORADO CITY    N/A     43  28  56 E5        29.85S
PAGE, AZ       CLEAR     61  27  27 CALM      29.79R
GRAND CANYON   CLEAR     49  19  30 SW8       29.93F
KINGMAN, AZ    CLEAR     63  24  22 S14       29.79S
FLAGSTAFF, AZ  CLEAR     52  19  27 SW12G21   29.96S

$$

REGIONAL REPORTS    NEVADA/IDAHO/WYOMING

CITY           SKY/WX    TMP DP  RH WIND       PRES   REMARKS
LAS VEGAS, NV  MOCLDY    71  17  12 S12       29.66F
ELY, NY        MOCLDY    34  29  82 S10       29.86F WCI  26
ELKO, NV       CLOUDY    43  29  57 S6        29.81S
POCATELLO, ID  CLOUDY    47  37  68 S12       29.77F
BURLEY, ID     CLOUDY    47  36  65 SW3       29.75F
EVANSTON, WY   CLOUDY    36  30  79 S8        29.85F WCI  30
ROCK SPRINGS,  CLEAR     39  35  86 SW12      29.83F WCI  32
KEMMERER, WY     N/A     36  30  80 CALM      29.85S

$$



USA.gov is the U.S. government's official web portal to all federal, state and local government web resources and services.